x

9439040 - Astoria, Or (asto3) Weather Station

7:54 - Fri 2nd Dec 2016 All times are PST. -8 hours from GMT.

  • Wind
  • Sea Temp 50°f
  • Ar Temp 50°f
  • Sea Pressure 1022.5mb
  • 9439040 - Astoria, Or
  • 9439040 - Astoria, Or

More Historic Weather Station data

Upgrade to MSW Pro to gain access to the past 30 days of data for over 8000 Wavebouys and Weather Stations around the globe.

Join Pro

Comparision Forecast

View Surf forecast
   
Sex 12/02 7:54  -  2 mph 1022.5mb 50f 50f
7:48  -  1 mph 1022.5mb 50f 50f
7:42  -  3 mph 1022.5mb 50f 51f
7:36 2 6 mph 1022.5mb 50f 50f
7:30  -  3 mph 1022.5mb 50f 51f
7:24 2 5 mph 1022.5mb 50f 51f
7:18 2 5 mph 1022.4mb 50f 51f
7:12  -  3 mph 1022.4mb 50f 51f
7:06  -  5 mph 1022.2mb 50f 51f
7:00 1 5 mph 1022.1mb 50f 51f
6:54  -  6 mph 1022.2mb 50f 51f
6:48 1 3 mph 1022.2mb 50f 51f
6:42  -  5 mph 1022.1mb 50f 51f
6:36 2 8 mph 1022mb 50f 51f
6:30 5 9 mph 1021.7mb 50f 51f
6:24 6 10 mph 1021.8mb 50f 51f
6:18 1 6 mph 1021.7mb 50f 51f
6:12 2 5 mph 1021.8mb 50f 51f
6:06 2 7 mph 1021.9mb 50f 51f
6:00 2 9 mph 1021.7mb 50f 51f
5:54 5 10 mph 1021.5mb 50f 50f
5:48 6 14 mph 1021.4mb 50f 50f
5:42 8 14 mph 1021.4mb 50f 50f
5:36 7 14 mph 1021.4mb 50f 50f
5:30 10 14 mph 1021.7mb 50f 50f
5:24 14 20 mph 1021.6mb 50f 50f
5:18 15 30 mph 1021.7mb 50f 50f
5:12 20 24 mph 1021.7mb 50f 50f
5:06 18 24 mph 1021.5mb 50f 50f
5:00 20 26 mph 1021.3mb 50f 51f
4:54 16 22 mph 1021.2mb 50f 51f
4:48 14 23 mph 1021mb 50f 51f
4:42 14 24 mph 1021.2mb 50f 51f
4:36 18 26 mph 1021mb 50f 51f
4:30 16 22 mph 1020.9mb 50f 51f
4:18 14 28 mph 1021.1mb 50f 51f
4:12 14 18 mph 1021.1mb 50f 51f
4:06 15 22 mph 1021.3mb 50f 51f
4:00 15 22 mph 1021.2mb 50f 51f
3:30 8 17 mph 1021.9mb 50f 52f
3:24 10 18 mph 1021.8mb 50f 52f
3:18 7 16 mph 1021.9mb 50f 52f
3:12 6 10 mph 1021.8mb 50f 51f
3:06 5 8 mph 1021.7mb 50f 50f
3:00 5 8 mph 1021.9mb 50f 50f
1:18 2 5 mph 1023.3mb 50f 48f
1:12 2
mph
1023.6mb 50f 48f
1:06 1 3 mph 1023.3mb 50f 48f
1:00 1 3 mph 1023.3mb 50f 48f
12:54 2 5 mph 1023.3mb 50f 48f
12:48 2 6 mph 1023.4mb 50f 48f
12:42 1 3 mph 1023.5mb 50f 49f
12:36 2 5 mph 1023.5mb 50f 48f
12:30 3 5 mph 1023.5mb 50f 49f
12:24  -  1 mph 1023.9mb 50f 49f
12:18 2 5 mph 1023.9mb 49f 49f
12:12 1 3 mph 1024.1mb 49f 48f
12:06  -  2 mph 1024.3mb 49f 48f
12:00 2 6 mph 1024.3mb 50f 48f
11:54 3 5 mph 1024.1mb 50f 48f
11:48 5 9 mph 1024.1mb 49f 48f
11:42 5 6 mph 1024.1mb 49f 48f
11:36 2 3 mph 1024.8mb 49f 47f
11:30  -  3 mph 1024.9mb 49f 47f
11:24 1 3 mph 1024.9mb 49f 47f
11:18 2 5 mph 1025mb 49f 47f
11:12  -  5 mph 1025.2mb 50f 47f
11:06 1 3 mph 1025.3mb 49f 47f
11:00  -  5 mph 1025.5mb 49f 48f
10:54 2 3 mph 1025.5mb 49f 47f
10:48 2 5 mph 1025.6mb 49f 47f
10:42  -  3 mph 1025.6mb 49f 47f
10:36 2 3 mph 1025.6mb 49f 47f
10:30 3 7 mph 1025.6mb 49f 47f
10:24 3 7 mph 1025.7mb 49f 47f
10:18 5 8 mph 1025.7mb 49f 47f
10:12 3 6 mph 1025.5mb 49f 47f
10:06 2 5 mph 1025.5mb 49f 46f
10:00 3 9 mph 1025.5mb 49f 46f
9:54 6 8 mph 1025.5mb 49f 46f
9:48 5 7 mph 1025.6mb 49f 46f
9:42 3 7 mph 1025.8mb 49f 46f
9:36 3 6 mph 1026.1mb 49f 46f
9:30 3 5 mph 1026.1mb 49f 46f
9:24 2 5 mph 1026.1mb 49f 46f
9:18 3 5 mph 1026mb 50f 46f
9:12 2 5 mph 1026mb 50f 46f
9:06 3 5 mph 1025.9mb 49f 46f
9:00 3 8 mph 1025.9mb 49f 46f
8:54 6 9 mph 1025.8mb 49f 46f
8:48 6 8 mph 1025.8mb 49f 46f
8:42 5 7 mph 1025.8mb 49f 46f
8:36 3 6 mph 1025.9mb 49f 46f
8:30 5 8 mph 1026mb 49f 46f
8:24 6 10 mph 1026.1mb 49f 46f
8:18 5 7 mph 1026.1mb 49f 46f
8:12 5 6 mph 1026mb 49f 46f
8:06 5 7 mph 1026mb 49f 46f
8:00 5 8 mph 1026.1mb 49f 46f
7:54 3 8 mph 1026mb 49f 46f
7:48 5 7 mph 1026mb 49f 46f
7:42 2 6 mph 1026.1mb 49f 46f
7:36 2 6 mph 1026mb 49f 46f
7:30 3 6 mph 1025.8mb 49f 46f
7:24 2 5 mph 1025.7mb 49f 46f
7:18 2 5 mph 1025.5mb 49f 46f
7:12 1 3 mph 1025.5mb 49f 46f
7:06 3 6 mph 1025.4mb 49f 46f
7:00 2 5 mph 1025.4mb 49f 46f
6:54 3 8 mph 1025.4mb 49f 46f
6:48 5 7 mph 1025.5mb 49f 46f
6:42 5 7 mph 1025.8mb 49f 46f
6:36 3 8 mph 1025.7mb 49f 46f
6:30 5 6 mph 1025.8mb 49f 46f
6:24 5 8 mph 1025.8mb 49f 46f
6:18 6 8 mph 1025.8mb 49f 46f
6:12 5 10 mph 1025.8mb 50f 46f
6:06 3 6 mph 1025.9mb 50f 46f
6:00 3 6 mph 1026.1mb 49f 46f
5:54 2 8 mph 1026.1mb 49f 46f
5:48 5 11 mph 1026.1mb 49f 46f
5:42 6 9 mph 1026.1mb 49f 46f
5:36 7 11 mph 1026.1mb 49f 46f
5:30 6 10 mph 1026.1mb 49f 46f
5:24 6 10 mph 1026.2mb 49f 46f
5:18 5 10 mph 1026.3mb 49f 46f
5:12 6 8 mph 1026.3mb 49f 46f
5:06 7 11 mph 1026.4mb 49f 46f
5:00 8 10 mph 1026.6mb 49f 46f
4:54 6 10 mph 1026.5mb 49f 46f
4:48 6 10 mph 1026.5mb 49f 46f
4:42 6 10 mph 1026.5mb 49f 46f
4:36 7 9 mph 1026.8mb 49f 46f
4:30 7 9 mph 1026.8mb 49f 46f
4:24 6 8 mph 1027mb 49f 46f
4:18 5 7 mph 1027mb 49f 46f
4:12 3 9 mph 1027.2mb 49f 46f
4:06 5 9 mph 1027.2mb 49f 46f
4:00 6 9 mph 1027.4mb 49f 46f
3:54 6 8 mph 1027.4mb 49f 46f
3:48 5 9 mph 1027.4mb 49f 46f
3:42 6 9 mph 1027.3mb 49f 46f
3:36 6 9 mph 1027.3mb 49f 46f
3:30 7 9 mph 1027.3mb 49f 46f
3:24 3 7 mph 1027.3mb 49f 46f
3:18 5 9 mph 1027.3mb 49f 46f
3:12 5 6 mph 1027.4mb 49f 46f
3:06 3 6 mph 1027.4mb 49f 46f
3:00 5 8 mph 1027.4mb 49f 45f
2:54 6 8 mph 1027.5mb 49f 45f
2:48 6 8 mph 1027.5mb 49f 46f
2:42 5 7 mph 1027.7mb 49f 46f
2:36 3 6 mph 1027.7mb 49f 46f
2:30 2 7 mph 1027.8mb 49f 46f
2:24 3 8 mph 1027.9mb 49f 46f
2:18 3 10 mph 1027.8mb 49f 46f
2:12 5 8 mph 1027.8mb 49f 46f
2:06 2 8 mph 1027.8mb 49f 46f
2:00 2 6 mph 1027.8mb 49f 46f
1:54 3 7 mph 1027.7mb 49f 46f
1:48 6 9 mph 1027.7mb 49f 46f
1:42 6 8 mph 1027.9mb 49f 46f
1:36 3 8 mph 1027.8mb 49f 46f
1:30 5 8 mph 1027.7mb 49f 46f
1:24 3 7 mph 1027.6mb 49f 46f
1:18 5 8 mph 1027.5mb 49f 46f
1:12 5 9 mph 1027.5mb 49f 46f
1:06 5 9 mph 1027.5mb 49f 46f
1:00 5 10 mph 1027.4mb 49f 46f
12:54 7 13 mph 1027.5mb 49f 46f
12:48 6 9 mph 1027.4mb 49f 46f
12:42 6 10 mph 1027.4mb 49f 46f
12:36 5 8 mph 1027.4mb 49f 46f
12:30 6 13 mph 1027.4mb 49f 46f
12:24 6 10 mph 1027.4mb 49f 46f
12:18 5 10 mph 1027.4mb 49f 46f
12:12 6 10 mph 1027.5mb 49f 46f
12:06 6 8 mph 1027.6mb 49f 46f
12:00 6 8 mph 1027.6mb 49f 46f
Qui 12/01 11:54 6 9 mph 1027.5mb 49f 46f
11:48 5 9 mph 1027.5mb 49f 46f
11:42 5 9 mph 1027.6mb 49f 46f
11:36 5 9 mph 1027.5mb 49f 46f
11:30 6 10 mph 1027.5mb 49f 46f
11:24 5 9 mph 1027.5mb 49f 46f
11:18 6 8 mph 1027.5mb 49f 46f
11:12 5 7 mph 1027.5mb 49f 46f
11:06 5 8 mph 1027.5mb 49f 46f
11:00 3 7 mph 1027.5mb 49f 46f
10:54 6 9 mph 1027.6mb 49f 46f
10:48 5 6 mph 1027.5mb 49f 46f
10:42 3 7 mph 1027.5mb 49f 46f
10:36 5 6 mph 1027.4mb 49f 46f
10:30 3 7 mph 1027.4mb 49f 46f
10:24 5 6 mph 1027.3mb 49f 46f
10:18 3 6 mph 1027.4mb 49f 46f
10:12 2 6 mph 1027.5mb 49f 46f
10:06 5 7 mph 1027.6mb 49f 46f
10:00 3 6 mph 1027.6mb 49f 46f
9:54 6 9 mph 1027.6mb 49f 46f
9:48 3 7 mph 1027.6mb 49f 46f
9:42 3 9 mph 1027.5mb 49f 46f
9:36 5 7 mph 1027.5mb 49f 46f
9:30 5 7 mph 1027.5mb 49f 46f
9:24 6 8 mph 1027.5mb 50f 46f
9:18 3 6 mph 1027.4mb 50f 46f
9:12 1 3 mph 1027.4mb 50f 46f
9:06 1 5 mph 1027.4mb 50f 46f
9:00 2 6 mph 1027.5mb 50f 46f
8:54 3 8 mph 1027.5mb 50f 46f
8:48 7 9 mph 1027.4mb 50f 46f
8:42 5 8 mph 1027.4mb 50f 46f
8:36 5 9 mph 1027.3mb 50f 46f
8:30 5 8 mph 1027.3mb 50f 46f
8:24 6 10 mph 1027.4mb 50f 46f
8:18 6 8 mph 1027.5mb 50f 46f
8:12 3 8 mph 1027.6mb 50f 46f
8:06 6 11 mph 1027.6mb 50f 46f
8:00  -  7 mph 1027.5mb 50f 46f
7:54 9 11 mph 1027.8mb 50f 46f
7:48 3 6 mph 1027.6mb 50f 46f
7:42 2 7 mph 1027.4mb 50f 46f
7:36 3 6 mph 1027.4mb 50f 46f
7:30 5 9 mph 1027.4mb 50f 46f
7:24 3 6 mph 1027.4mb 50f 46f
7:18 3 5 mph 1027.4mb 50f 46f
7:12 3 6 mph 1027.4mb 50f 46f
7:06 2 6 mph 1027.4mb 50f 46f
7:00 3 8 mph 1027.4mb 50f 46f
6:54 1 3 mph 1027.4mb 50f 46f
6:48  -  1 mph 1027.4mb 50f 46f
6:30 2 5 mph 1027.4mb 50f 46f
6:24 1 2 mph 1027.4mb 50f 46f
6:18 1 2 mph 1027.4mb 50f 46f
6:12 1 3 mph 1027.4mb 50f 46f
6:06 3 5 mph 1027.3mb 50f 46f
6:00 2 3 mph 1027.2mb 50f 46f
5:54  -  2 mph 1027.3mb 50f 46f
5:48 2 3 mph 1027.3mb 50f 46f
5:30 1 3 mph 1027.3mb 50f 46f
5:24  -  1 mph 1027.3mb 50f 46f
5:18  -  2 mph 1027.2mb 50f 46f
5:12 2 6 mph 1027.2mb 50f 46f
5:06 2 3 mph 1027.2mb 50f 46f
5:00 2 6 mph 1027.1mb 50f 46f
4:54 3 6 mph 1027.1mb 50f 46f
4:48  -  3 mph 1027mb 50f 46f
4:42 2 5 mph 1026.9mb 50f 46f
4:36 3 6 mph 1027.1mb 50f 46f
4:30 3 6 mph 1027.1mb 50f 46f
4:24 3 6 mph 1027.1mb 50f 46f
4:18 3 7 mph 1027.1mb 50f 47f
4:12 3 7 mph 1027.1mb 50f 47f
4:06  -  3 mph 1027mb 50f 47f
4:00 2 5 mph 1027.1mb 50f 46f
3:54 2 6 mph 1027mb 50f 46f
3:48 3 6 mph 1026.9mb 50f 46f
3:42 5 7 mph 1027mb 50f 46f
3:36 3 6 mph 1027mb 50f 46f
3:30 3 6 mph 1027.1mb 50f 46f
3:24 1 2 mph 1027mb 50f 46f
3:18  -  3 mph 1026.9mb 50f 46f
3:12  -  5 mph 1026.7mb 50f 46f
3:06 2 5 mph 1026.7mb 50f 46f
3:00 2 6 mph 1026.6mb 50f 46f
2:54 1 2 mph 1026.5mb 50f 46f
2:48  -  5 mph 1026.5mb 50f 46f
2:42 2 6 mph 1026.5mb 50f 46f
2:36 3 8 mph 1026.5mb 50f 46f
2:30 6 9 mph 1026.5mb 50f 46f
2:24 2 3 mph 1026.6mb 50f 46f
2:18 2 6 mph 1026.6mb 50f 46f
2:12 5 6 mph 1026.6mb 50f 46f
2:06 5 6 mph 1026.6mb 50f 46f
2:00 3 6 mph 1026.5mb 50f 46f
1:54 6 7 mph 1026.5mb 50f 46f
1:48 5 6 mph 1026.5mb 50f 46f
1:42 3 7 mph 1026.4mb 50f 46f
1:36 6 8 mph 1026.3mb 50f 46f
1:30 3 6 mph 1026.5mb 50f 46f
1:24  -  2 mph 1026.5mb 50f 46f
1:18 1 3 mph 1026.6mb 50f 46f
1:12 2 6 mph 1026.6mb 50f 46f
1:06 2 5 mph 1026.6mb 50f 46f
1:00 3 7 mph 1026.6mb 50f 46f
12:54 3 7 mph 1026.6mb 50f 46f
12:48 3 6 mph 1026.6mb 50f 46f
12:42 3 6 mph 1026.6mb 50f 46f
12:36 3 5 mph 1026.6mb 50f 46f
12:30 5 7 mph 1026.7mb 50f 45f
12:24 5 7 mph 1026.7mb 50f 45f
12:18 3 6 mph 1026.7mb 50f 46f
12:12 2 8 mph 1026.7mb 50f 45f
12:06 5 9 mph 1026.6mb 50f 45f
12:00 6 8 mph 1026.6mb 50f 46f
11:54 6 7 mph 1026.7mb 50f 45f
11:48 5 7 mph 1026.7mb 50f 45f
11:42 6 8 mph 1026.7mb 50f 45f
11:36 6 7 mph 1026.7mb 50f 44f
11:30 5 7 mph 1026.8mb 50f 44f
11:24 5 7 mph 1026.8mb 50f 44f
11:18 2 5 mph 1026.8mb 50f 44f
11:12 2 6 mph 1026.9mb 50f 45f
11:06 3 9 mph 1026.7mb 50f 45f
11:00 5 8 mph 1026.7mb 49f 44f
10:54 7 9 mph 1026.5mb 49f 44f
10:48 6 10 mph 1026.5mb 49f 44f
9:54 5 7 mph 1026.4mb 50f 43f
9:48 3 6 mph 1026.3mb 50f 43f
9:30 3 6 mph 1026.1mb 50f 43f
9:24 5 6 mph 1026.1mb 50f 43f
9:18 3 6 mph 1026.1mb 49f 43f
9:12 1 5 mph 1026.1mb 49f 43f
9:06 5 6 mph 1026mb 49f 43f
9:00 5
mph
1025.9mb 49f 43f
8:54 2 3 mph 1025.9mb 49f 42f
8:48 3 5 mph 1025.9mb 49f 42f
8:42 3 5 mph 1026mb 49f 42f
8:36 3 5 mph 1025.7mb 49f 42f
8:30 3 6 mph 1025.6mb 50f 42f
8:24 3 5 mph 1025.5mb 50f 42f
8:18 2 3 mph 1025.5mb 50f 42f
8:12 2 3 mph 1025.5mb 50f 43f
8:06 1
mph
1025.5mb 50f 43f
8:00 1 2 mph 1025.5mb 50f 43f
7:54 1 2 mph 1025.5mb 50f 42f
7:48 1 2 mph 1025.4mb 50f 42f
7:42 2
mph
1025.4mb 49f 42f
7:36 2 5 mph 1025.3mb 49f 42f
7:30 3 5 mph 1025.1mb 49f 42f
7:24 5 6 mph 1025mb 49f 42f
7:18 3 6 mph 1025mb 49f 42f
7:12 5 6 mph 1025.1mb 49f 42f
7:06 3 6 mph 1024.9mb 49f 42f
7:00 6 8 mph 1024.9mb 49f 42f
6:54 7 8 mph 1024.8mb 49f 42f
6:48 6 7 mph 1024.7mb 49f 42f
6:42 5 7 mph 1024.7mb 49f 42f
6:36 6 7 mph 1024.7mb 49f 42f
6:30 6 7 mph 1024.9mb 49f 42f
6:24 3 6 mph 1025mb 49f 42f
6:18 2 5 mph 1025.1mb 49f 42f
6:12 5 6 mph 1025.1mb 49f 42f
6:06 2 8 mph 1025.1mb 49f 42f
6:00 3 7 mph 1025mb 49f 43f
5:54 2 5 mph 1024.9mb 49f 42f
5:48 2 5 mph 1024.6mb 49f 42f
5:42 2 3 mph 1024.5mb 50f 42f
5:36 3 6 mph 1024.6mb 50f 42f
5:30 5 7 mph 1024.6mb 50f 42f
5:18 3 6 mph 1024.6mb 50f 43f
5:12 2 5 mph 1024.6mb 50f 43f
5:06 5
mph
1024.5mb 50f 43f
5:00 2 6 mph 1024.6mb 50f 43f
4:54 6 8 mph 1024.7mb 50f 43f
4:48 5 6 mph 1024.8mb 50f 42f
4:42 3 7 mph 1024.7mb 50f 43f
4:36 3 6 mph 1024.8mb 50f 43f
4:30 3 5 mph 1024.6mb 50f 43f
4:24 2 3 mph 1024.6mb 50f 43f
4:18 1 5 mph 1024.6mb 50f 42f
4:12 3 5 mph 1024.6mb 50f 42f
4:06 6 7 mph 1024.6mb 50f 42f
4:00 5 6 mph 1024.7mb 50f 42f
3:54 2 5 mph 1024.7mb 50f 42f
3:48 3 6 mph 1024.7mb 50f 43f
3:42 3 8 mph 1024.8mb 49f 42f
3:36 6 8 mph 1024.7mb 49f 42f
3:30 7 9 mph 1024.7mb 49f 42f
3:24 5 10 mph 1024.8mb 49f 43f
3:18 7 10 mph 1024.6mb 49f 43f
3:12 5 9 mph 1024.9mb 50f 43f
3:06 2 7 mph 1024.9mb 50f 43f
3:00 1 6 mph 1024.8mb 50f 43f
2:54 3 5 mph 1024.7mb 49f 43f
2:48 2 6 mph 1024.7mb 49f 44f
2:42 3 6 mph 1024.6mb 49f 44f
2:36 5 6 mph 1024.5mb 50f 43f
2:30 3
mph
1024.5mb 50f 43f
2:24 3 6 mph 1024.4mb 50f 43f
2:18 6 8 mph 1024.3mb 50f 43f
2:12 7 8 mph 1024.2mb 50f 43f
2:06 6 7 mph 1024.2mb 49f 43f
2:00 6 8 mph 1024.2mb 49f 43f
1:54 6 7 mph 1024.2mb 50f 43f
1:48 5 6 mph 1024.1mb 50f 44f
1:42 6 8 mph 1024.1mb 50f 44f
1:36 7 8 mph 1024.1mb 50f 44f
1:30 3 5 mph 1024.2mb 50f 44f
1:24 5 7 mph 1024mb 50f 44f
1:18 6 8 mph 1024mb 50f 43f
1:12 5 6 mph 1023.9mb 50f 44f
1:06 5 6 mph 1023.9mb 50f 44f
1:00 2 3 mph 1023.9mb 49f 44f
12:54 1 5 mph 1023.9mb 49f 44f
12:48 6 15 mph 1023.9mb 49f 44f
12:42 14 22 mph 1024mb 49f 44f
12:36 3 7 mph 1023.9mb 49f 46f
12:30 2
mph
1023.6mb 49f 45f
12:24 2 3 mph 1023.6mb 49f 46f
12:18 2
mph
1023.6mb 49f 44f
12:12 2 3 mph 1023.6mb 50f 44f
12:06 2 5 mph 1023.5mb 50f 44f
12:00 5 8 mph 1023.5mb 50f 43f
Qua 11/30 11:54 8 9 mph 1023.5mb 50f 42f
11:48 6 8 mph 1023.6mb 50f 43f
11:42 3 5 mph 1023.5mb 50f 44f
11:36 5 6 mph 1023.4mb 50f 46f
11:30 1 5 mph 1023.5mb 49f 44f
11:24 2 3 mph 1023.4mb 50f 44f
11:18 2 3 mph 1023.3mb 50f 44f
11:12 2 5 mph 1023.3mb 50f 44f
11:06 3 5 mph 1023.3mb 50f 44f
11:00 2
mph
1023.3mb 50f 44f
10:54 2
mph
1023.2mb 50f 44f
10:48 2 5 mph 1023.2mb 50f 44f
10:42 3 6 mph 1023.2mb 50f 44f
10:36 3 5 mph 1023.1mb 50f 44f
10:30 5 7 mph 1023mb 50f 44f
10:24 6 7 mph 1022.9mb 50f 44f
10:18 5 6 mph 1023.1mb 50f 43f
10:12 2 3 mph 1023.2mb 50f 44f
10:06  -  7 mph 1023.1mb 50f 44f
10:00 3 6 mph 1023mb 50f 44f
9:54 3 6 mph 1023.1mb 50f 44f
9:48 6 8 mph 1022.9mb 50f -
9:42 5 6 mph 1022.9mb 50f -
9:36 2 5 mph 1022.9mb 50f -
9:30 3 5 mph 1022.8mb 50f 45f
9:24 3
mph
1022.8mb 50f 45f
9:18 3 5 mph 1022.7mb 50f 45f
9:12 5
mph
1022.6mb 50f 44f
9:06 5
mph
1022.7mb 50f 44f
9:00 3 5 mph 1022.7mb 50f 44f
8:54 2 3 mph 1022.7mb 50f 44f
8:48  -  8 mph 1022.7mb 50f 44f
8:42 8 16 mph 1022.8mb 50f 45f
8:36 18 29 mph 1022.8mb 50f 45f
8:30 1 3 mph 1022.6mb 50f 47f
8:24  -  2 mph 1022.4mb 50f 46f
8:18 1 5 mph 1022.4mb 50f 46f
8:12 3 5 mph 1022.4mb 50f 46f
8:06 5 6 mph 1022.4mb 50f 46f
8:00 3 5 mph 1022.4mb 50f 45f
7:54 3
mph
1022.3mb 50f 46f
7:48  -  3 mph 1022.3mb 50f 46f
7:42 5 16 mph 1022.3mb 50f 46f
7:36 3 11 mph 1022.3mb 50f 47f
7:30 5 7 mph 1022.2mb 50f 46f
7:24 5 7 mph 1022.1mb 50f 46f
7:18 6 9 mph 1022.1mb 50f 46f
7:12 5 8 mph 1022mb 50f 46f
7:06 6 10 mph 1022.1mb 50f 47f
7:00 1 6 mph 1022.1mb 50f 47f
6:54 6 10 mph 1022.1mb 50f 47f
6:48 13 16 mph 1022mb 50f 47f
6:42 8 11 mph 1021.9mb 50f 48f
6:36 6 8 mph 1021.8mb 50f 48f
6:30 5 7 mph 1021.7mb 50f 49f
6:24 3 8 mph 1021.7mb 50f 49f
6:18 7 10 mph 1021.7mb 50f 49f
6:12 6 14 mph 1021.6mb 50f 49f
6:06 9 17 mph 1021.7mb 50f 49f
6:00 10 18 mph 1021.7mb 50f 47f
5:54 14 20 mph 1021.7mb 50f 48f
5:48 18 25 mph 1021.6mb 50f 48f
5:42 13 17 mph 1021.5mb 50f 49f
5:36 5 7 mph 1021.4mb 50f 51f
5:30 3 6 mph 1021.3mb 50f 50f
5:24 2 9 mph 1021.3mb 50f 50f
5:18 3 8 mph 1021.3mb 50f 50f
5:12 6 10 mph 1021.2mb 50f 50f
5:06 6 11 mph 1021.1mb 50f 50f
5:00 8 13 mph 1021.1mb 50f 51f
4:54 6 11 mph 1021.1mb 50f 51f
4:48 9 14 mph 1021.1mb 50f 51f
4:42 13 17 mph 1021.1mb 50f 51f
4:36 7 11 mph 1021.1mb 50f 51f
4:30 2 7 mph 1021mb 50f 51f
4:24 2 7 mph 1020.9mb 50f 51f
4:18 3 13 mph 1020.9mb 50f 51f
4:12 8 14 mph 1020.9mb 50f 51f
4:06 10 14 mph 1020.9mb 50f 51f
4:00 7 11 mph 1020.9mb 50f 51f
3:54 9 16 mph 1020.9mb 50f 51f
3:48 10 17 mph 1020.8mb 50f 51f
3:42 6 14 mph 1020.7mb 50f 51f
3:36 5 11 mph 1020.7mb 50f 51f
3:00 10 16 mph 1020.3mb 50f 51f
2:54 7 14 mph 1020.3mb 50f 51f
2:48 10 15 mph 1020.2mb 50f 51f
2:42 10 16 mph 1020.1mb 50f 51f
2:36 9 15 mph 1020.1mb 50f 52f
2:30 10 18 mph 1020.1mb 50f 51f
2:24 10 15 mph 1020.1mb 50f 51f
2:18 11 18 mph 1020mb 50f 51f
2:12 9 17 mph 1020mb 50f 51f
2:06 13 24 mph 1020.1mb 50f 51f
2:00 7 15 mph 1020mb 50f 52f
1:54 10 15 mph 1020mb 50f 52f
1:48 5 9 mph 1020mb 50f 52f
1:42 2 5 mph 1020mb 50f 52f
1:36 2 7 mph 1020mb 50f 51f
1:30 2 6 mph 1020mb 50f 51f
1:24 3 8 mph 1020mb 50f 51f
1:18 5 9 mph 1020mb 50f 51f
1:12 6 9 mph 1019.9mb 50f 51f
1:06 5 15 mph 1019.9mb 50f 52f
1:00 7 20 mph 1019.9mb 50f 51f
12:54 7 17 mph 1019.9mb 50f 52f
12:48 11 21 mph 1019.8mb 50f 51f
12:42 6 13 mph 1019.8mb 50f 51f
12:36 6 10 mph 1019.8mb 50f 52f
12:30 3 14 mph 1019.8mb 50f 52f
12:24 11 20 mph 1019.8mb 50f 52f
12:18 7 14 mph 1019.8mb 50f 52f
12:12 2 6 mph 1019.7mb 50f 52f
12:06 1 5 mph 1019.7mb 50f 51f
12:00 2 5 mph 1019.7mb 50f 51f
11:54 2 7 mph 1019.8mb 50f 50f
11:48 3 7 mph 1019.8mb 50f 50f
11:42 2 10 mph 1019.9mb 50f 50f
11:36 2 5 mph 1019.7mb 50f 50f
11:30 1 5 mph 1019.7mb 50f 49f
11:24  -  6 mph 1019.7mb 50f 49f
11:18 5 11 mph 1019.6mb 50f 50f
11:12 6 9 mph 1019.6mb 50f 49f
11:06 9 24 mph 1019.8mb 50f 49f
11:00 6 17 mph 1019.8mb 50f 49f
10:54 3 6 mph 1019.5mb 50f 49f
10:48 1 5 mph 1019.5mb 50f 49f
10:42 1 3 mph 1019.5mb 50f 49f
10:36 3 9 mph 1019.5mb 50f 49f
10:30 6 10 mph 1019.5mb 50f 47f
10:24 5 8 mph 1019.5mb 50f 48f
10:18  -  5 mph 1019.2mb 50f 48f
10:12  -  8 mph 1019.1mb 50f 47f
10:06 2 6 mph 1019.1mb 50f 47f
10:00 1 9 mph 1019.2mb 50f 47f
9:54 5 16 mph 1019.5mb 50f 48f
9:48 6 10 mph 1018.8mb 50f 49f
9:42 7 9 mph 1018.7mb 50f 48f
9:36 7 9 mph 1018.6mb 50f 47f
9:30 7 11 mph 1018.6mb 50f 47f
9:24 3 10 mph 1018.5mb 50f 49f
9:18 2 8 mph 1018.4mb 50f 48f
9:12 2 10 mph 1018.4mb 50f 48f
9:06 6 15 mph 1018.5mb 50f 49f
9:00 5 13 mph 1018.5mb 50f 49f
8:54 3 15 mph 1018.4mb 50f 49f
8:48 7 15 mph 1018.3mb 50f 49f
8:42 2 9 mph 1018.1mb 50f 49f
8:36 2 7 mph 1018mb 50f 49f
8:30 5 11 mph 1017.9mb 50f 49f
8:24 6 14 mph 1017.8mb 50f 49f
8:18 8 13 mph 1017.6mb 50f 49f
8:12 2 9 mph 1017.6mb 50f 47f
8:06 3 13 mph 1017.9mb 50f 48f
8:00 3 11 mph 1017.7mb 50f 48f
7:54 5 16 mph 1017.4mb 50f 47f
7:48 11 22 mph 1017.6mb 50f 47f
7:42 8 18 mph 1017.6mb 50f 48f
7:36 16 22 mph 1017.3mb 50f 48f
7:30 5 10 mph 1017.2mb 50f 48f
7:24 6 10 mph 1017mb 50f 47f
7:18 1 7 mph 1016.8mb 50f 47f
7:12 6 7 mph 1016.8mb 50f 47f
7:06 2 7 mph 1016.8mb 50f 47f
7:00 2 8 mph 1016.7mb 50f 47f
6:54 3 11 mph 1016.8mb 50f 46f
6:48 2 22 mph 1016.9mb 50f 46f
6:42 6 11 mph 1017mb 50f 48f
6:36 5 10 mph 1016.2mb 50f 48f
6:30 8 14 mph 1016.2mb 50f 48f
6:24 10 14 mph 1016.1mb 50f 49f
6:18 8 13 mph 1016.1mb 50f 48f
6:12 6 14 mph 1016.1mb 50f 48f
6:06 6 13 mph 1016.2mb 50f 48f
6:00 6 15 mph 1016.3mb 50f 48f
5:54 3 13 mph 1016.3mb 50f 48f
5:48 6 13 mph 1016.2mb 50f 47f
5:42 3 22 mph 1016.2mb 50f 47f
5:36 20 28 mph 1016.4mb 50f 46f
5:30 7 18 mph 1015.9mb 50f 50f
5:24 8 18 mph 1015.5mb 50f 50f
5:18 13 20 mph 1015.7mb 50f 50f
5:12 7 16 mph 1015.7mb 50f 50f
5:06 8 16 mph 1015.7mb 50f 50f
5:00 8 16 mph 1015.7mb 50f 50f
4:54 5 14 mph 1015.6mb 50f 50f
4:48 7 14 mph 1015.6mb 50f 49f
4:42 5 10 mph 1015.5mb 50f 49f
4:36 3 10 mph 1015.4mb 50f 49f
4:30 2 8 mph 1015.3mb 50f 49f
4:24 3 7 mph 1015.2mb 50f 49f
4:18 3 11 mph 1015.2mb 50f 49f
4:12 2 6 mph 1015.2mb 50f 49f
4:06 2 7 mph 1015.2mb 50f 50f
4:00 3 8 mph 1014.9mb 50f 51f
3:54 3 10 mph 1014.8mb 50f 51f
3:48 2 10 mph 1014.9mb 50f 50f
3:42 3 14 mph 1014.9mb 50f 50f
3:36 5 9 mph 1014.8mb 50f 50f
3:30 2 8 mph 1014.6mb 50f 50f
3:24 2 11 mph 1014.5mb 50f 50f
3:18 5 14 mph 1014.5mb 50f 50f
3:12 6 14 mph 1014.5mb 50f 50f
3:06 5 13 mph 1014.4mb 50f 50f
3:00 5 14 mph 1014.2mb 50f 49f
2:54 8 15 mph 1014.2mb 50f 50f
2:48 6 11 mph 1014.2mb 50f 51f
2:42 2 13 mph 1014.3mb 50f 51f
2:36 5 14 mph 1014.3mb 50f 51f
2:30 6 11 mph 1014.2mb 50f 50f
2:24 3 13 mph 1014.3mb 50f 50f
2:18 10 18 mph 1014mb 50f 51f
2:12 7 13 mph 1013.9mb 50f 51f
2:06 3 11 mph 1013.9mb 50f 50f
2:00 7 17 mph 1013.9mb 50f 50f
1:54 11 18 mph 1013.8mb 50f 50f
1:48 13 18 mph 1013.7mb 50f 50f
1:42 10 17 mph 1013.8mb 50f 50f
1:36 11 17 mph 1013.6mb 50f 51f
1:30 10 20 mph 1013.6mb 50f 51f
1:24 13 17 mph 1013.3mb 50f 51f
1:18 11 17 mph 1013.2mb 50f 51f
1:12 10 20 mph 1013.1mb 50f 50f
1:06 13 18 mph 1013.1mb 50f 50f
1:00 10 18 mph 1013.1mb 50f 50f
12:54 9 20 mph 1013.1mb 50f 51f
12:48 8 16 mph 1013mb 50f 51f
12:42 10 20 mph 1013mb 50f 51f
12:36 6 14 mph 1013mb 50f 51f
12:30 10 17 mph 1012.9mb 50f 51f
12:24 9 15 mph 1012.9mb 50f 51f
12:18 11 15 mph 1012.9mb 50f 51f
12:12 13 20 mph 1013mb 50f 51f
12:06 5 18 mph 1013mb 50f 50f
12:00 9 14 mph 1012.9mb 50f 51f
Ter 11/29 11:54 9 14 mph 1012.7mb 50f 51f
11:48 10 16 mph 1012.6mb 50f 51f
11:42 9 18 mph 1012.6mb 50f 51f
11:36 13 20 mph 1012.6mb 50f 51f
11:30 13 18 mph 1012.5mb 50f 51f
11:24 10 14 mph 1012.4mb 50f 49f
11:18 8 11 mph 1012.4mb 50f 49f
11:12 6 15 mph 1012.3mb 50f 48f
11:06 9 14 mph 1012.2mb 50f 48f
11:00 10 15 mph 1012.1mb 50f 47f
10:54 14 16 mph 1011.9mb 50f 47f
10:48 10 15 mph 1011.9mb 50f 47f
10:42 7 10 mph 1011.8mb 50f 47f
10:36 6 10 mph 1011.8mb 50f 47f
10:30 7 10 mph 1011.8mb 50f 47f
10:24 6 9 mph 1011.9mb 50f 47f
10:18 7 9 mph 1011.8mb 50f 47f
10:12 8 13 mph 1011.9mb 50f 47f
10:06 8 13 mph 1011.8mb 50f 47f
10:00 7 11 mph 1012mb 50f 47f
9:54 7 11 mph 1012mb 50f 47f
9:48 8 11 mph 1012.1mb - -
9:42 6 7 mph 1012.2mb - -
9:36 5 9 mph 1012.3mb - -
9:30 6 9 mph 1012.3mb 50f 47f
9:24 5 8 mph 1012.2mb 50f 47f
9:18 5 7 mph 1012.1mb 50f 47f
9:12 6 9 mph 1012mb 50f 47f
9:06 2 7 mph 1012mb 50f 47f
9:00 3 10 mph 1012.1mb 50f 47f
8:54 5 7 mph 1012.3mb 50f 46f
8:48 3 7 mph 1012.4mb 50f 46f
8:42  -  6 mph 1012.5mb 50f 46f
8:36 3 7 mph 1012.5mb 50f 46f
8:30 3 6 mph 1012.7mb 50f 46f
8:24 3 6 mph 1012.7mb 50f 46f
8:18 1 6 mph 1012.8mb 50f 46f
8:12 3 7 mph 1013mb 50f 46f
8:06 2 6 mph 1013.3mb 50f 46f
8:00 3 6 mph 1013.6mb 50f 47f
7:54 2 5 mph 1013.5mb 50f 47f
7:48 2 5 mph 1013.5mb 50f 47f
7:42 3 6 mph 1013.5mb 50f 47f
7:36 2 3 mph 1013.4mb 50f 47f
7:30 3 8 mph 1013.1mb 50f 48f
7:24 3 10 mph 1013mb 50f 47f
7:18 6 9 mph 1013.1mb 50f 48f
7:12 6 11 mph 1013.1mb 50f 47f
7:06 7 11 mph 1013.2mb 50f 47f
7:00 3 9 mph 1013.2mb 50f 47f
6:54 6 13 mph 1013.3mb 50f 48f
6:48 8 13 mph 1013.4mb 50f 47f
6:42 2 7 mph 1013.5mb 50f 47f
6:36 2 6 mph 1013.8mb 50f 47f
6:30  -  6 mph - 50f 47f
6:24 1 5 mph - 50f 47f
6:18  -  mph 1013.7mb 50f 47f
6:12  -  mph 1014mb 50f 47f
6:06  -  mph 1014.1mb 50f 47f
6:00  -  2 mph 1014.4mb 50f 47f
5:54 1 3 mph 1014.4mb 50f 47f
5:48 1 6 mph - 50f 47f
5:42 3 6 mph - 50f 48f
5:36 3 6 mph - 50f 47f
5:30 1 2 mph 1014.8mb 50f 47f
5:24  -  3 mph 1014.9mb 50f 48f
5:18 2 3 mph 1014.9mb 50f 48f
5:12  -  5 mph 1015.1mb 50f 48f
5:06 2 3 mph 1015.2mb 50f 47f
5:00 2 3 mph - 50f 48f
4:54 2
mph
- 50f 48f
4:48 1 5 mph - 50f 48f
4:42 2 3 mph - 50f 49f
4:36 3 6 mph - 50f 49f
4:30 2 5 mph 1016.2mb 50f 49f
4:24 2 3 mph 1016.4mb 50f 49f
4:18  -  mph 1016.5mb 50f 49f
4:12  -  mph 1016.6mb 50f 49f
4:06  -  mph 1016.7mb 50f 49f
4:00  -  mph - 50f 49f
3:54  -  mph - 50f 50f
3:48 1 3 mph 1016.5mb 50f -
3:42 1 2 mph 1016.4mb 50f -
3:36 2 3 mph 1016.6mb 50f -
3:30 5 7 mph - 50f 51f
3:24 2 7 mph - 50f 52f
3:18 6 8 mph 1016.9mb 51f 52f
3:12 6 8 mph 1017mb 51f 52f
3:06 5 8 mph 1017.2mb 51f 52f
3:00 6 8 mph - 51f 52f
2:54 6 7 mph - 51f 52f
2:48  -  mph - 51f -
2:42  -  mph - 51f -
2:36  -  mph - 51f -
2:30 3 6 mph 1018mb 50f 51f
2:24 2 8 mph 1018.1mb 50f 51f
2:18  -  mph 1018.1mb 50f 50f
2:12  -  mph 1018.2mb 50f 50f
2:06  -  mph 1018.2mb 50f 50f
2:00 3 8 mph 1018.3mb 50f 50f
1:54 6 10 mph 1018.5mb 50f 49f
1:48 6 9 mph 1018.8mb 50f 49f
1:42 7 11 mph 1018.8mb 50f 49f
1:36 8 10 mph 1018.8mb 50f 49f
1:30 6 9 mph 1018.8mb 50f 49f
1:24 3 9 mph 1018.9mb 50f 50f
1:18 6 11 mph 1019.1mb 50f 50f
1:12 2 6 mph 1019.1mb 50f 49f
1:06 5 8 mph 1019.3mb 50f 49f
1:00 3 7 mph 1019.5mb 50f 49f
12:54 3 6 mph 1019.8mb 50f 49f
12:48 2 6 mph 1020mb 50f 49f
12:42 2 5 mph 1020mb 50f 49f
12:36 2 5 mph 1020.1mb 50f 49f
12:30 3 5 mph 1020.1mb 50f 49f
12:24 2 7 mph 1020.1mb 50f 49f
12:18 1 7 mph 1020.3mb 50f 49f
12:12 3 6 mph 1020.6mb 50f 48f
12:06 1 5 mph 1020.7mb 50f 49f
12:00 1 5 mph 1020.8mb 50f 49f
11:54 5 8 mph 1020.8mb 50f 48f
11:48 5 8 mph 1021mb 50f 48f
11:42 1 7 mph 1021.1mb 50f 48f
11:36 2 7 mph 1021.2mb 50f 48f
11:30 1 5 mph 1021.3mb 50f 48f
11:24 5 6 mph 1021.4mb 50f 48f
11:18 2 6 mph 1021.4mb 50f 48f
11:12 2 6 mph 1021.5mb 50f 47f
11:06 2 7 mph 1021.7mb 50f 48f
11:00 3 6 mph 1021.7mb 50f 48f
10:54 2 6 mph 1021.8mb 50f 48f
10:48 2 6 mph 1021.8mb 50f 48f
10:42 3 7 mph 1021.9mb 50f 48f
10:36 2 8 mph 1022mb 50f 48f
10:30 2 6 mph 1022.1mb 50f 48f
10:24 2 6 mph 1022.2mb 50f 47f
10:18 2 5 mph 1022.2mb 50f 47f
10:12 2 6 mph 1022.3mb 50f 47f
10:06 2 3 mph 1022.3mb 50f 47f
10:00 2 5 mph 1022.2mb 50f 47f
9:54 2 5 mph 1022.2mb 50f 47f
9:48 1 6 mph 1022.1mb 50f 47f
9:42 1 3 mph 1022mb 50f 47f
9:36  -  5 mph 1022.1mb 50f 47f
9:30 2 3 mph 1022mb 50f 47f
9:24 5 6 mph 1022mb 50f 47f
9:18 3 7 mph 1021.9mb 50f 47f
9:12 2 6 mph 1022mb 50f 47f
9:06 3 7 mph 1021.9mb 50f 47f
9:00 1 6 mph 1021.8mb 50f 47f
8:54 3 5 mph 1021.8mb 50f 47f
8:48 1 2 mph 1021.8mb 50f 47f
8:42 2 5 mph 1021.8mb 50f 46f
8:36 2 6 mph 1021.8mb 50f 46f
8:30 5 7 mph 1021.7mb 50f 46f
8:24 6
mph
1021.6mb 50f 46f
8:18 1 2 mph 1021.6mb 50f 46f
8:12  -  2 mph 1021.6mb 50f 46f
8:06 3 6 mph 1021.6mb 50f 46f
8:00 5 7 mph 1021.6mb 50f 46f
7:54 2 5 mph 1021.6mb 50f 46f
7:48 3 5 mph 1021.6mb 50f 46f
7:42  -  2 mph 1021.6mb 50f 46f
7:36  -  5 mph 1021.6mb 50f 46f
7:30  -  2 mph 1021.6mb 50f 46f
7:24 2 6 mph 1021.6mb 50f 46f
7:18 1 5 mph 1021.5mb 50f 46f
7:12  -  2 mph 1021.5mb 50f 46f
7:06 2 5 mph 1021.5mb 50f 46f
7:00 1 5 mph 1021.6mb 50f 46f
6:54  -  1 mph 1021.6mb 50f 46f
6:48  -  1 mph 1021.7mb 50f 46f
6:42  -  2 mph 1021.7mb 50f 46f
6:36  -  1 mph 1021.7mb 50f 46f
6:30  -  5 mph 1021.6mb 50f 46f
6:24 1 5 mph 1021.5mb 50f 46f
6:18  -  1 mph 1021.5mb 50f 46f
6:12  -  2 mph 1021.6mb 50f 46f
6:06  -  2 mph 1021.7mb 50f 46f
6:00  -  1 mph 1021.7mb 50f 46f
5:54  -  1 mph 1021.8mb 50f 46f
5:48  -  1 mph 1021.7mb 50f 46f
5:42 1 2 mph 1021.8mb 50f 46f
5:36  -  2 mph 1021.9mb 50f 46f
5:30  -  1 mph 1021.9mb 50f 46f
5:24 1 3 mph 1021.9mb 50f 46f
5:18 2 3 mph 1021.9mb 50f 46f
5:12 1 2 mph 1021.8mb 50f 46f
5:06 1 2 mph 1021.9mb 50f 46f
5:00 1 2 mph 1022.1mb 50f 46f
4:54  -  1 mph 1022.1mb 50f 46f
4:48  -  1 mph 1022.1mb 50f 46f